Charlottesville, VA

11:13 AM EDT on March 25, 2017 (GMT -0400)
Charlottesville-Albemarle

Weather History for KCHO - January, 2012

Change the Weather History Date:

Tuesday, January 31, 2012

  Actual Average Record
Temperature  
Mean Temperature 53 °F 36 °F  
Max Temperature 69 °F 46 °F 70 °F (1916)
Min Temperature 37 °F 26 °F 4 °F (2010)
Degree Days  
Heating Degree Days 12 29  
Month to date heating degree days 765 924  
Since 1 July heating degree days 2150 2660  
Cooling Degree Days 0 0  
Month to date cooling degree days 0 0  
Year to date cooling degree days 0 0  
Growing Degree Days 2 (Base 50)    
Moisture  
Dew Point 26 °F    
Average Humidity 36    
Maximum Humidity 54    
Minimum Humidity 18    
Precipitation  
Precipitation 0.00 in 0.08 in 0.31 in (2003)
Month to date precipitation 2.19 2.77  
Year to date precipitation 2.19 2.77  
Sea Level Pressure  
Sea Level Pressure 30.17 in    
Wind  
Wind Speed 10 mph (SSW)    
Max Wind Speed 16 mph    
Max Gust Speed 23 mph    
Visibility 10 miles    
Events      
T = Trace of Precipitation, MM = Missing Value Source: NWS Daily Summary

Daily Weather History Graph

Daily Weather History Graph

Search for Another Location

Airport or City:

Trip Planner

Search our weather history database for the weather conditions in past years. The results will help you decide how hot, cold, wet, or windy it might be!

Date:

Astronomy

Jan. 31, 2012 Rise Set
Actual Time 7:19 AM EST 5:35 PM EST
Civil Twilight 6:51 AM EST 6:02 PM EST
Nautical Twilight 6:20 AM EST 6:34 PM EST
Astronomical Twilight 5:49 AM EST 7:05 PM EST
Moon 11:24 AM EST (1/31) 1:05 AM EST (1/31)
Length of Visible Light 11h 11m
Length of Day
10h 15m
First Quarter, 55% of the Moon is Illuminated
Jan 31
First Quarter
Feb 7
Full
Feb 14
Last Quarter
Feb 21
New
Feb 29
First Quarter

Hourly Weather History & Observations

Time (EST) Temp. Windchill Dew Point Humidity Pressure Visibility Wind Dir Wind Speed Gust Speed Precip Events Conditions
12:53 AM 42.1 °F 36.6 °F 21.9 °F 45% 30.24 in 10.0 mi SSW 9.2 mph - N/A   Clear
1:53 AM 43.0 °F 37.2 °F 23.0 °F 45% 30.22 in 10.0 mi SSW 10.4 mph - N/A   Clear
2:53 AM 44.1 °F 40.1 °F 21.9 °F 42% 30.21 in 10.0 mi SSW 6.9 mph - N/A   Clear
3:53 AM 42.1 °F 38.4 °F 23.0 °F 47% 30.20 in 10.0 mi South 5.8 mph - N/A   Clear
4:53 AM 37.9 °F 32.1 °F 23.0 °F 55% 30.21 in 10.0 mi South 8.1 mph - N/A   Clear
5:53 AM 39.9 °F 34.5 °F 23.0 °F 51% 30.21 in 10.0 mi South 8.1 mph - N/A   Clear
6:53 AM 41.0 °F 35.8 °F 23.0 °F 49% 30.22 in 10.0 mi South 8.1 mph - N/A   Clear
7:53 AM 42.1 °F 37.1 °F 24.1 °F 49% 30.24 in 10.0 mi South 8.1 mph - N/A   Clear
8:53 AM 48.0 °F - 25.0 °F 41% 30.25 in 10.0 mi South 6.9 mph - N/A   Clear
9:53 AM 55.0 °F - 26.1 °F 33% 30.24 in 10.0 mi South 9.2 mph - N/A   Clear
10:53 AM 59.0 °F - 27.0 °F 29% 30.23 in 10.0 mi SSE 9.2 mph - N/A   Clear
11:53 AM 64.0 °F - 27.0 °F 25% 30.19 in 10.0 mi South 11.5 mph - N/A   Clear
12:53 PM 66.0 °F - 21.9 °F 19% 30.17 in 10.0 mi SSW 8.1 mph - N/A   Clear
1:53 PM 66.9 °F - 26.1 °F 21% 30.14 in 10.0 mi SW 13.8 mph 20.7 mph N/A   Clear
2:53 PM 68.0 °F - 25.0 °F 20% 30.12 in 10.0 mi SW 16.1 mph 23.0 mph N/A   Clear
3:17 PM 68.0 °F - 24.8 °F 20% 30.12 in 10.0 mi SW 16.1 mph 23.0 mph N/A   Clear
3:53 PM 66.9 °F - 25.0 °F 21% 30.11 in 10.0 mi SW 16.1 mph 23.0 mph N/A   Clear
4:53 PM 66.0 °F - 25.0 °F 21% 30.11 in 10.0 mi South 11.5 mph 23.0 mph N/A   Clear
5:53 PM 57.0 °F - 27.0 °F 32% 30.12 in 10.0 mi SSW 11.5 mph 20.7 mph N/A   Clear
6:53 PM 59.0 °F - 27.0 °F 29% 30.13 in 10.0 mi South 11.5 mph - N/A   Clear
7:53 PM 57.9 °F - 28.0 °F 32% 30.13 in 10.0 mi SW 11.5 mph 20.7 mph N/A   Clear
8:53 PM 57.0 °F - 28.9 °F 34% 30.13 in 10.0 mi SW 11.5 mph 20.7 mph N/A   Clear
9:53 PM 53.1 °F - 30.0 °F 41% 30.12 in 10.0 mi South 6.9 mph - N/A   Clear
10:53 PM 53.1 °F - 30.0 °F 41% 30.11 in 10.0 mi South 4.6 mph - N/A   Clear
11:53 PM 55.9 °F - 30.9 °F 39% 30.11 in 10.0 mi Variable 3.5 mph - N/A   Partly Cloudy